Weather History for Winfield, KS

Change the Weather History Date:

Saturday, November 23, 2013

  Actual Average Record
Temperature  
Mean Temperature 30 °F -  
Max Temperature 37 °F 53 °F 75 °F (2005)
Min Temperature 23 °F 32 °F 15 °F (2007)
Degree Days  
Heating Degree Days 34    
Moisture  
Dew Point 16 °F    
Average Humidity 53    
Maximum Humidity 64    
Minimum Humidity 46    
Precipitation  
Precipitation 0.00 in - - ()
Sea Level Pressure  
Sea Level Pressure 30.72 in    
Wind  
Wind Speed 12 mph (NNE)    
Max Wind Speed 21 mph    
Max Gust Speed 25 mph    
Visibility 10 miles    
Events      
Averages and records for this station are not official NWS values.
T = Trace of Precipitation, MM = Missing Value Source: NWS Daily Summary

Daily Weather History Graph

Daily Weather History Graph

Search for Another Location

Airport:

Trip Planner

Search our weather history database for the weather conditions in past years. The results will help you decide how hot, cold, wet, or windy it might be!

Date:

Astronomy

Nov. 23, 2013 Rise Set
Actual Time 7:15 AM CST 5:13 PM CST
Civil Twilight 6:47 AM CST 5:41 PM CST
Nautical Twilight 6:15 AM CST 6:13 PM CST
Astronomical Twilight 5:44 AM CST 6:44 PM CST
Moon 10:40 PM CST (11/23) 11:35 AM CST (11/23)
Length of Visible Light 10h 54m
Length of Day
9h 57m
Waning Gibbous, 69% of the Moon is Illuminated
Nov 23
Waning Gibbous
Nov 25
Last Quarter
Dec 2
New
Dec 9
First Quarter
Dec 17
Full

Hourly Weather History & Observations

Time (CST) Temp. Windchill Dew Point Humidity Pressure Visibility Wind Dir Wind Speed Gust Speed Precip Events Conditions
12:54 AM 30.0 °F 20.5 °F 19.0 °F 64% 30.64 in 10.0 mi North 11.5 mph - N/A   Overcast
1:54 AM 30.0 °F 23.2 °F 18.0 °F 61% 30.65 in 10.0 mi North 6.9 mph - N/A   Overcast
2:54 AM 30.0 °F 23.2 °F 18.0 °F 61% 30.66 in 10.0 mi North 6.9 mph - N/A   Overcast
3:54 AM 30.0 °F 21.7 °F 18.0 °F 61% 30.66 in 10.0 mi North 9.2 mph - N/A   Overcast
4:54 AM 30.0 °F 19.1 °F 16.0 °F 56% 30.66 in 10.0 mi North 15.0 mph - N/A   Overcast
5:54 AM 30.9 °F 21.7 °F 16.0 °F 54% 30.69 in 10.0 mi North 11.5 mph - N/A   Overcast
6:54 AM 30.9 °F 22.2 °F 14.0 °F 50% 30.70 in 10.0 mi North 10.4 mph - N/A   Overcast
7:54 AM 32.0 °F 23.6 °F 15.1 °F 50% 30.72 in 10.0 mi NNE 10.4 mph - N/A   Overcast
8:54 AM 33.1 °F 23.4 °F 14.0 °F 46% 30.73 in 10.0 mi North 13.8 mph - N/A   Overcast
9:54 AM 34.0 °F 23.4 °F 18.0 °F 52% 30.74 in 10.0 mi NNE 17.3 mph 23.0 mph N/A   Overcast
10:54 AM 36.0 °F 26.3 °F 18.0 °F 48% 30.76 in 10.0 mi NNE 16.1 mph - N/A   Overcast
11:54 AM 36.0 °F 27.1 °F 18.0 °F 48% 30.75 in 10.0 mi NE 13.8 mph 25.3 mph N/A   Partly Cloudy
12:54 PM 37.9 °F 28.2 °F 19.9 °F 48% 30.73 in 10.0 mi NNE 18.4 mph 24.2 mph N/A   Clear
1:54 PM 37.9 °F 29.2 °F 19.0 °F 47% 30.72 in 10.0 mi NNE 15.0 mph 23.0 mph N/A   Clear
2:54 PM 37.0 °F 26.4 °F 18.0 °F 46% 30.72 in 10.0 mi North 20.7 mph 24.2 mph N/A   Clear
3:54 PM 37.0 °F 26.7 °F 18.0 °F 46% 30.71 in 10.0 mi NNE 19.6 mph 24.2 mph N/A   Clear
4:54 PM 33.1 °F 23.4 °F 15.1 °F 48% 30.74 in 10.0 mi NNE 13.8 mph 19.6 mph N/A   Clear
5:54 PM 30.0 °F 20.0 °F 12.9 °F 49% 30.75 in 10.0 mi NNE 12.7 mph - N/A   Clear
6:54 PM 28.9 °F 18.6 °F 12.9 °F 51% 30.76 in 10.0 mi NNE 12.7 mph - N/A   Clear
7:54 PM 27.0 °F 17.3 °F 12.9 °F 56% 30.76 in 10.0 mi NNE 10.4 mph - N/A   Clear
8:54 PM 26.1 °F 16.8 °F 10.9 °F 53% 30.76 in 10.0 mi NE 9.2 mph - N/A   Clear
9:54 PM 25.0 °F 14.8 °F 10.9 °F 55% 30.74 in 10.0 mi NE 10.4 mph - N/A   Clear
10:54 PM 24.1 °F 13.7 °F 10.9 °F 57% 30.74 in 10.0 mi NE 10.4 mph - N/A   Clear
11:54 PM 23.0 °F 11.7 °F 10.9 °F 60% 30.75 in 10.0 mi ENE 11.5 mph - N/A   Clear